Location: Unspecified
(0.0000°N, 0.0000°E)
Time: 09:38:32
(UTC+00:00)

A-11 Canister half - Visible Passes

Search period start: 23 October 2017 00:00
Search period end: 02 November 2017 00:00
Orbit: 1527 x 1682 km, 47.3° (Epoch: 23 October)

Date Brightness Start Highest point End Pass type
(mag) Time Alt. Az. Time Alt. Az. Time Alt. Az.
23 Oct 10.5 21:08:30 10° SSW 21:12:04 25° SSW 21:12:04 25° SSW visible
24 Oct 10.2 20:46:57 10° SSW 20:51:57 31° S 20:51:57 31° S visible
25 Oct 9.9 20:25:26 10° SSW 20:31:51 38° S 20:31:51 38° S visible
26 Oct 9.6 20:03:55 10° SSW 20:11:50 42° SSE 20:11:50 42° SSE visible
26 Oct 11.2 22:09:12 10° WSW 22:10:10 13° WSW 22:10:10 13° WSW visible
27 Oct 9.5 19:42:25 10° SSW 19:51:45 42° SE 19:51:50 42° SE visible
27 Oct 10.8 21:47:24 10° WSW 21:50:11 20° WSW 21:50:11 20° WSW visible
28 Oct 9.5 19:20:56 10° SSW 19:30:07 39° SE 19:31:55 37° ESE visible
28 Oct 10.4 21:25:38 10° WSW 21:30:15 29° WSW 21:30:15 29° WSW visible
29 Oct 9.7 18:59:27 10° SSW 19:08:29 36° SE 19:12:02 29° E visible
29 Oct 10.0 21:03:53 10° WSW 21:10:22 39° W 21:10:22 39° W visible
30 Oct 9.8 18:38:00 10° SSW 18:46:51 34° SE 18:52:11 21° E visible
30 Oct 9.6 20:42:08 10° SW 20:50:32 51° WNW 20:50:32 51° WNW visible
31 Oct 9.9 18:16:33 10° S 18:25:13 32° SE 18:32:23 14° ENE visible
31 Oct 9.3 20:20:25 10° SW 20:30:14 58° NW 20:30:44 57° NW visible
01 Nov 11.3 05:10:03 10° NE 05:10:58 10° NE 05:11:54 10° NE visible
01 Nov 10.0 17:55:08 10° S 18:03:34 30° SE 18:11:48 10° ENE visible
01 Nov 9.3 19:58:42 10° SW 20:08:37 62° NW 20:10:58 51° N visible
